Location: Fort Frances
(48.6170°N, 93.4170°W)
Time: 11:36:50
(UTC-05:00)

ISS - All Passes

Search period start: 28 August 2016 00:00
Search period end: 07 September 2016 00:00
Orbit: 402 x 406 km, 51.6° (Epoch: 29 August)

Date Brightness Start Highest point End Pass type
(mag) Time Alt. Az. Time Alt. Az. Time Alt. Az.
28 Aug - 09:03:00 10° S 09:05:26 20° SE 09:07:55 10° E daylight
28 Aug - 10:38:16 10° WSW 10:41:35 88° SE 10:44:53 10° ENE daylight
28 Aug - 12:15:02 10° WNW 12:18:14 47° N 12:21:27 10° ENE daylight
28 Aug - 13:51:40 10° WNW 13:54:58 74° NNE 13:58:16 10° ESE daylight
28 Aug - 15:28:23 10° W 15:31:15 27° SW 15:34:05 10° SSE daylight
29 Aug - 08:12:00 10° SSE 08:13:18 12° SE 08:14:36 10° ESE daylight
29 Aug - 09:45:58 10° SW 09:49:13 59° SSE 09:52:28 10° ENE daylight
29 Aug - 11:22:32 10° W 11:25:45 51° N 11:28:59 10° ENE daylight
29 Aug - 12:59:16 10° WNW 13:02:31 57° NNE 13:05:47 10° E daylight
29 Aug - 14:35:49 10° WNW 14:38:59 44° SSW 14:42:07 10° SE daylight
30 Aug - 08:53:50 10° SW 08:56:53 37° SSE 08:59:58 10° ENE daylight
30 Aug - 10:30:01 10° W 10:33:17 62° NNW 10:36:34 10° ENE daylight
30 Aug - 12:06:49 10° WNW 12:10:02 49° N 12:13:15 10° E daylight
30 Aug - 13:43:20 10° WNW 13:46:38 69° SSW 13:49:54 10° ESE daylight
30 Aug - 15:20:45 10° WSW 15:22:38 14° SW 15:24:29 10° S daylight
31 Aug - 08:01:57 10° SSW 08:04:37 23° SE 08:07:17 10° E daylight
31 Aug - 09:37:31 10° WSW 09:40:49 82° NNW 09:44:07 10° ENE daylight
31 Aug - 11:14:19 10° WNW 11:17:31 47° N 11:20:44 10° ENE daylight
31 Aug - 12:50:55 10° WNW 12:54:13 82° NNE 12:57:31 10° ESE daylight
31 Aug - 14:27:44 10° W 14:30:25 23° SW 14:33:06 10° SSE daylight
01 Sep - 07:10:36 10° S 07:12:25 14° SE 07:14:15 10° ESE daylight
01 Sep - 08:45:08 10° WSW 08:48:24 69° SSE 08:51:41 10° ENE daylight
01 Sep - 10:21:46 10° W 10:24:59 49° N 10:28:13 10° ENE daylight
01 Sep - 11:58:28 10° WNW 12:01:45 62° NNE 12:05:01 10° E daylight
01 Sep - 13:35:03 10° WNW 13:38:08 37° SSW 13:41:13 10° SE daylight
02 Sep - 07:52:53 10° SW 07:56:01 43° SSE 07:59:10 10° ENE daylight
02 Sep - 09:29:13 10° W 09:32:28 58° NNW 09:35:44 10° ENE daylight
02 Sep - 11:06:00 10° WNW 11:09:14 51° N 11:12:28 10° E daylight
02 Sep - 12:42:31 10° WNW 12:45:46 60° SSW 12:49:01 10° SE daylight
02 Sep - 14:20:20 10° WSW 14:21:41 12° SW 14:23:03 10° SSW daylight
03 Sep - 07:00:53 10° SSW 07:03:42 27° SE 07:06:32 10° E daylight
03 Sep - 08:36:40 10° WSW 08:39:58 74° NNW 08:43:15 10° ENE daylight
03 Sep - 10:13:28 10° WNW 10:16:41 47° N 10:19:53 10° ENE daylight
03 Sep - 11:50:02 10° WNW 11:53:20 89° SW 11:56:39 10° ESE daylight
03 Sep - 13:26:59 10° W 13:29:29 20° SW 13:31:57 10° S daylight
04 Sep - 06:09:15 10° S 06:11:26 17° SE 06:13:37 10° E daylight
04 Sep - 07:44:12 10° WSW 07:47:29 79° SSE 07:50:47 10° ENE daylight
04 Sep - 09:20:54 10° W 09:24:06 48° N 09:27:19 10° ENE daylight
04 Sep - 10:57:34 10° WNW 11:00:51 67° NNE 11:04:07 10° E daylight
04 Sep - 12:34:12 10° W 12:37:11 32° SW 12:40:09 10° SSE daylight
05 Sep - 06:51:51 10° SW 06:55:03 50° SSE 06:58:15 10° ENE daylight
05 Sep - 08:28:18 10° W 08:31:32 54° N 08:34:47 10° ENE daylight
05 Sep - 10:05:04 10° WNW 10:08:18 54° N 10:11:33 10° E daylight
05 Sep - 11:41:35 10° WNW 11:44:48 51° SSW 11:48:00 10° SE daylight
06 Sep - 05:59:42 10° SSW 06:02:40 31° SE 06:05:38 10° E visible
06 Sep - 07:35:42 10° W 07:38:59 68° NNW 07:42:16 10° ENE daylight
06 Sep - 09:12:31 10° WNW 09:15:43 48° N 09:18:55 10° E daylight
06 Sep - 10:49:03 10° WNW 10:52:21 80° SSW 10:55:38 10° ESE daylight
06 Sep - 12:26:12 10° W 12:28:25 17° SW 12:30:37 10° S daylight
